星链-34584 (STARLINK-34584)

导读

STARLINK-34584是美国于2025年6月28日发射的星链系列卫星,隶属于SpaceX公司构建的星链卫星互联网星座。星链星座旨在为全球提供覆盖偏远区域的高速低延迟互联网服务,该卫星入轨后将和其他星链卫星协同,进一步补全球覆盖网络,提升星座服务的稳定性与覆盖能力。

Basic Information
目录编号:
64697
目录名称:
STARLINK-34584
国际标识:
2025-142B
轨道中心:
EARTH
卫星名称:
星链-34584
卫星全名:
星链-34584 (STARLINK-34584)
卫星状态:
在轨 (已飞行350 天)
发射日期:
2025-06-28 UTC
国别 :
美国 (US)
星等 :
--
Orbit Information
数据来源 国际轨道数据 AOE轨道数据
星历时间 2026-06-13T19:39:10+0800
11小时前
查看轨道信息
2026-06-12T01:00:00+0800
2天前
查看轨道信息
半长轴 6950.086km 6950.143km
偏心率 0.0003479 0.0003602
轨道倾角 70.002° 70.000°
近地点辐角 272.300° 269.710°
升交点赤经 72.777° 77.255°
平近点角 87.776° 226.818°
近地点 569.531km 569.502km
远地点 574.367km 574.51km
周期 96.105分钟 96.106分钟
每日圈数 14.983647 14.983463
Detailed Information
固有亮度:
5
最大亮度:
2.5
卫星平台:
Starlink V1.0
覆盖范围:
全球
运营商:
太空探索技术公司
运营商所在国:
美国
制造商(研发单位):
太空探索技术公司
制造商所在国:
美国
使用方式:
暂无
Satellite Introduction
Starlink 计划是 SpaceX 推出的全球卫星互联网项目,通过发射低轨道卫星,为全球尤其是偏远地区提供高速、低延迟的互联网服务。自 2019 年起,Starlink 已部署数千颗卫星,旨在缩小全球数字鸿沟,推动互联网普及。该项目还为军事、航空等行业提供通信支持,带来广泛经济效益。
2D Orbit Map
3D Orbit Map
Orbit Altitude Analysis Chart
Orbit Inclination Analysis Chart
Orbit Comprehensive Analysis Chart
View Comprehensive Chart